This demonstration page uses our WeatherBlox Daily Observations layout. Learn more.

Left ArrowRight Arrow

39.29038, -76.61219

Hourly Observations for January 24, 2017

Temp ( °F °C ) Dew Point ( °F °C ) Humidity (%) Winds ( mph kmh ) Pressure ( in mb ) Visibility ( mi km ) Precip ( " mm )
12:54 am 00:54 undefined 40 4.4 33 0.6 77 77 undefined N/A 29.46 998 N/A 0.00 0.00
1:54 am 01:54 undefined 40 4.4 34 1.1 79 79 undefined N/A 29.44 997 N/A 0.00 0.00
2:54 am 02:54 undefined 40 4.4 34 1.1 79 79 undefined N/A 29.45 997 N/A 0.00 0.00
3:54 am 03:54 undefined 40 4.4 34 1.1 79 79 undefined N/A 29.44 997 N/A 0.00 0.00
4:54 am 04:54 undefined 41 5 34 1.1 76 76 undefined N/A 29.44 997 N/A 0.00 0.00
5:54 am 05:54 undefined 40 4.4 33 0.6 77 77 undefined N/A 29.45 997 N/A 0.00 0.00
6:54 am 06:54 undefined 40 4.4 34 1.1 79 79 undefined N/A 29.48 998 N/A 0.00 0.00
7:54 am 07:54 undefined 40 4.4 33 0.6 77 77 undefined N/A 29.47 998 N/A 0.00 0.00
8:54 am 08:54 undefined 42 5.6 33 0.6 71 71 undefined N/A 29.50 999 N/A 0.00 0.00
9:54 am 09:54 undefined 44 6.7 33 0.6 65 65 undefined N/A 29.52 1000 N/A 0.00 0.00
10:54 am 10:54 undefined 45 7.2 33 0.6 63 63 undefined N/A 29.51 999 N/A 0.00 0.00
11:54 am 11:54 undefined 46 7.8 34 1.1 63 63 undefined N/A 29.49 999 N/A 0.00 0.00
12:54 pm 12:54 undefined 48 8.9 33 0.6 56 56 undefined N/A 29.48 998 N/A 0.00 0.00
1:54 pm 13:54 undefined 48 8.9 31 -0.6 52 52 undefined N/A 29.47 998 N/A 0.00 0.00
2:54 pm 14:54 undefined 47 8.3 31 -0.6 54 54 undefined N/A 29.49 999 N/A 0.00 0.00
3:54 pm 15:54 undefined 47 8.3 31 -0.6 54 54 undefined N/A 29.51 999 N/A 0.00 0.00
4:54 pm 16:54 undefined 47 8.3 32 0 56 56 undefined N/A 29.54 1000 N/A 0.00 0.00
5:54 pm 17:54 undefined 46 7.8 32 0 58 58 undefined N/A 29.55 1001 N/A 0.00 0.00
6:54 pm 18:54 undefined 46 7.8 33 0.6 61 61 undefined N/A 29.58 1002 N/A 0.00 0.00
7:54 pm 19:54 undefined 46 7.8 33 0.6 61 61 undefined N/A 29.60 1002 N/A 0.00 0.00
8:54 pm 20:54 undefined 46 7.8 33 0.6 61 61 undefined N/A 29.61 1003 N/A 0.00 0.00
9:54 pm 21:54 undefined 46 7.8 34 1.1 63 63 undefined N/A 29.62 1003 N/A 0.00 0.00
10:54 pm 22:54 undefined 46 7.8 34 1.1 63 63 undefined N/A 29.63 1003 N/A 0.00 0.00
11:54 pm 23:54 undefined 45 7.2 34 1.1 66 66 undefined N/A 29.64 1004 N/A 0.00 0.00

Powered by AerisWeather